Home > Weather > Schleswig > Past weeks

Flag for Germany Past Weather in Schleswig, Schleswig-Holstein, Germany — Yesterday and Last 2 Weeks

Now
68 °F

Mild.


Feels Like: 68 °F
Forecast: 54 / 64 °F
Wind: 24 mph from West

Location: Schleswig-Jagel

Current Time: Aug 28, 2016 at 9:08:01 PM

Latest Report: Aug 28, 2016 at 8:20 PM


Visibility: 4 mi

Pressure: 29.83 "Hg

Humidity: 83%

Dew Point: 63 °F

Location of SchleswigLocation

Past Weather in Schleswig — Graph

°F

Schleswig Temperature Yesterday

Maximum temperature yesterday: 72 °F (at 1:20 PM)
Minimum temperature yesterday: 54 °F (at 6:20 AM)
Average temperature yesterday: 63 °F

High & Low Weather Summary for the Past Weeks

 TemperatureHumidityPressure
High86 °F (Aug 25, 3:20 PM)100% (Aug 15, 1:20 AM)30.30 "Hg (Aug 15, 1:20 AM)
Low45 °F (Aug 16, 5:20 AM)41% (Aug 16, 3:20 PM)29.77 "Hg (Aug 20, 6:20 AM)
Average63 °F78%30.05 "Hg
* Reported Aug 13 7:20 PM — Aug 28 7:20 PM, Schleswig, Weather by CustomWeather, © 2016

Note: Actual official high and low records may vary slightly from our data, if they occured in-between our weather recording intervals... More about our weather records

Advertising

Schleswig Weather History for the Previous 24 Hours

Scroll right to see more
 ConditionsComfort  
Time TempWeatherWind HumidityBarometerVisibility
7:20 PM
Sun, Aug 28
72 °FMild.7 mph78%29.80 "HgN/A
6:20 PM70 °FMild.7 mph88%29.80 "HgN/A
5:20 PM70 °FMild.5 mph83%29.83 "HgN/A
4:20 PM70 °FMild.6 mph83%29.83 "HgN/A
3:20 PM68 °FMild.7 mph88%29.86 "Hg5 mi
2:20 PM70 °FMild.3 mph83%29.86 "HgN/A
1:20 PM72 °FMild.3 mph73%29.89 "HgN/A
12:20 PM72 °FMild.13 mph73%29.92 "HgN/A
11:20 AM72 °FMild.10 mph73%29.86 "HgN/A
10:20 AM68 °FMild.15 mph78%29.86 "HgN/A
9:20 AM64 °FMild.8 mph88%29.89 "HgN/A
8:20 AM63 °FMild.9 mph88%29.89 "HgN/A
7:20 AM61 °FCool.14 mph94%29.86 "HgN/A
6:20 AM61 °FCool.10 mph94%29.95 "Hg4 mi
5:20 AM61 °FCool.12 mph94%29.98 "Hg3 mi
4:20 AM61 °FCool.9 mph94%29.98 "Hg4 mi
3:20 AM61 °FCool.12 mph94%30.04 "Hg0 mi
2:20 AM66 °FMild.14 mph64%29.95 "HgN/A
1:20 AM64 °FMild.12 mph68%30.01 "HgN/A
12:20 AM64 °FMild.10 mph73%30.01 "HgN/A
11:20 PM
Sat, Aug 27
63 °FMild.8 mph73%30.07 "HgN/A
10:20 PM61 °FCool.6 mph77%30.07 "HgN/A
9:20 PM61 °FCool.8 mph72%30.09 "HgN/A
Weather by CustomWeather, © 2016

See weather overviewHow to use our weather pages